Location: Newark
(43.6583°N, 1.6617°E)
Time: 22:52:06
(UTC+00:00)

Transit 4A - Pass Details

Date: 26 August 2019
Orbit: 865 x 980 km, 66.8° (Epoch: 20 September)

Event Time Altitude Azimuth Distance (km) Brightness Sun altitude
Rises 20:18:30 0° 292° (WNW) 3,682 12.6 -17.1°
Reaches altitude 10° 20:24:28 10° 335° (NNW) 2,722 11.2 -18.0°
Maximum altitude 20:25:08 10° 341° (NNW) 2,708 11.1 -18.1°
Drops below altitude 10° 20:25:48 10° 347° (NNW) 2,717 11.0 -18.2°
Sets 20:31:43 0° 30° (NNE) 3,636 11.1 -19.0°
